Estación municipal de Susqueda - St. Martí Sacalm (La Selva, )

Consulta los datos en tiempo real de la estación municipal de Susqueda - St. Martí Sacalm





Hora UTC 18:40
Temperatura 20.4 ºC
Humedad 87.0 %
Presión 1022.0 hPa
Pluja 0.0 mm
Velocidad viento 6.6 km/h
Dirección viento ENE
Radiación solar 0.1 W/m²

Datos diarios 2026-08-31



Hora UTC (invierno +1h; verano +2h)
Temperatura (ºC) Humedad (%) Presión (hPa) Velocidad viento (km/h) Precipitación (mm) Radiación solar (W/m²)
Hora UTC Aire Humedad Presión Vel. Dir. Vel. Max Dir. Intent. máx 5 min. Rad. Sol.
00:05 21.8 49.9 1020.5 0.5 SSW 0.5 SW 0.0 0.1
00:10 22.1 49.4 1020.5 0.0 NNE 0.0 SW 0.0 0.1
00:15 22.3 48.8 1020.5 0.0 NNE 0.0 SSW 0.0 0.1
00:20 22.4 48.9 1020.5 0.0 NNE 0.0 S 0.0 0.1
00:25 22.3 48.6 1020.5 0.0 NNE 0.0 SW 0.0 0.1
00:30 22.4 50.0 1020.5 0.2 E 3.9 ENE 0.0 0.1
00:35 22.3 51.5 1020.4 1.1 ENE 5.0 ENE 0.0 0.1
00:40 22.1 52.4 1020.4 0.4 ENE 4.2 ENE 0.0 0.1
00:45 22.0 52.9 1020.4 2.6 E 4.6 E 0.0 0.1
00:50 22.0 52.9 1020.4 5.2 ESE 6.7 E 0.0 0.1
00:55 22.5 51.7 1020.4 4.1 ESE 6.4 ESE 0.0 0.1
01:00 22.7 50.9 1020.4 5.5 SE 9.5 SE 0.0 0.1
01:05 22.5 50.6 1020.4 6.7 SSE 9.9 SSE 0.0 0.1
01:10 22.5 50.0 1020.4 6.4 SE 9.5 SE 0.0 0.1
01:15 22.4 50.6 1020.4 6.0 SE 9.9 SE 0.0 0.1
01:20 22.2 51.5 1020.3 6.7 SSE 11.3 SSE 0.0 0.1
01:25 22.0 52.1 1020.3 4.8 SSE 9.2 SSE 0.0 0.1
01:30 21.9 52.4 1020.3 3.9 SSE 8.1 SSE 0.0 0.1
01:35 21.8 52.5 1020.3 4.0 S 8.8 SSE 0.0 0.1
01:40 21.6 52.9 1020.4 1.1 S 4.2 S 0.0 0.1
01:45 21.4 53.5 1020.4 1.3 SSW 5.7 SSE 0.0 0.1
01:50 21.3 53.6 1020.4 1.8 SSW 5.7 SW 0.0 0.1
01:55 21.3 53.4 1020.4 3.6 SSW 6.7 SW 0.0 0.1
02:00 21.3 53.6 1020.4 6.0 SW 9.5 SW 0.0 0.1
02:05 21.4 52.9 1020.4 7.6 SW 9.5 SSW 0.0 0.1
02:10 21.2 53.5 1020.4 8.7 SW 11.0 SW 0.0 0.1
02:15 21.1 53.1 1020.4 9.4 SW 12.7 SW 0.0 0.1
02:20 21.0 53.2 1020.4 10.0 SW 12.4 SW 0.0 0.1
02:25 20.5 54.9 1020.4 8.3 SW 12.0 SW 0.0 0.1
02:30 20.4 55.1 1020.4 9.8 SW 13.1 SW 0.0 0.1
02:35 20.4 55.7 1020.4 10.1 SW 13.1 WSW 0.0 0.1
02:40 20.4 56.7 1020.5 11.5 SW 14.8 WSW 0.0 0.1
02:45 20.8 56.7 1020.5 11.1 SW 14.8 SW 0.0 0.1
02:50 20.8 57.3 1020.5 10.6 SW 14.8 SW 0.0 0.1
02:55 20.9 57.5 1020.5 11.3 SW 15.2 SW 0.0 0.1
03:00 20.9 57.4 1020.5 8.6 SSW 11.7 SW 0.0 0.1
03:05 20.9 57.4 1020.5 6.9 SSW 9.2 SSW 0.0 0.1
03:10 20.7 58.5 1020.5 6.2 S 13.8 S 0.0 0.1
03:15 20.7 59.5 1020.6 6.9 S 11.3 SSE 0.0 0.1
03:20 20.7 60.9 1020.6 5.8 S 13.8 SSE 0.0 0.1
03:25 20.6 61.6 1020.6 5.2 S 12.0 S 0.0 0.1
03:30 20.5 62.2 1020.6 5.2 S 12.4 SSE 0.0 0.1
03:35 20.5 62.5 1020.5 7.0 SSE 12.4 SSE 0.0 0.1
03:40 20.5 62.6 1020.5 7.5 SSE 12.4 SSE 0.0 0.1
03:45 20.5 62.7 1020.5 8.6 SSE 13.1 SSE 0.0 0.1
03:50 20.4 62.9 1020.6 7.7 SSE 13.1 SSE 0.0 0.1
03:55 20.3 63.4 1020.6 7.4 SSE 14.5 SSE 0.0 0.1
04:00 20.3 63.4 1020.6 7.1 S 12.4 SSE 0.0 0.1
04:05 20.3 63.7 1020.5 7.2 SSE 12.0 SSE 0.0 0.1
04:10 20.3 63.5 1020.5 8.3 SSE 14.5 SE 0.0 0.1
04:15 20.3 63.5 1020.5 8.1 S 12.4 SSE 0.0 0.1
04:20 20.3 63.6 1020.5 8.1 SSE 12.7 SSE 0.0 0.1
04:25 20.4 63.4 1020.5 6.0 SSE 11.3 SSE 0.0 0.1
04:30 20.4 63.2 1020.5 6.1 SSE 10.3 S 0.0 0.1
04:35 20.4 62.8 1020.5 7.0 SSE 15.9 ESE 0.0 0.1
04:40 20.5 62.1 1020.5 7.9 SSE 13.1 SSE 0.0 0.1
04:45 20.5 61.8 1020.5 8.9 SSE 15.9 SSE 0.0 0.2
04:50 20.6 61.8 1020.5 9.1 SSE 16.2 SSE 0.0 0.2
04:55 20.5 62.1 1020.6 5.1 SSE 11.3 SE 0.0 0.4
05:00 20.3 62.9 1020.6 4.9 SE 10.6 ESE 0.0 0.9
05:05 20.1 63.8 1020.6 4.7 SE 9.5 SSE 0.0 1.8
05:10 20.0 64.3 1020.6 4.5 SE 11.0 SE 0.0 3.2
05:15 19.9 64.7 1020.6 6.3 SSE 12.0 SE 0.0 6.3
05:20 19.9 64.7 1020.7 4.4 SSE 11.3 SE 0.0 12.1
05:25 19.9 65.0 1020.7 0.4 SE 5.0 ESE 0.0 19.9
05:30 19.8 65.1 1020.7 1.4 SE 6.7 SE 0.0 30.4
05:35 19.8 65.1 1020.8 0.3 ESE 4.6 ESE 0.0 42.1
05:40 19.8 65.0 1020.9 0.0 NNE 0.0 S 0.0 53.9
05:45 19.9 64.8 1020.9 0.0 NNE 0.0 SSE 0.0 65.9
05:50 19.9 64.7 1021.0 0.0 NNE 0.0 SW 0.0 78.5
05:55 20.0 64.5 1020.9 0.0 NNE 0.0 SW 0.0 91.7
06:00 20.1 63.6 1021.0 0.0 NNE 0.0 SW 0.0 105.2
06:05 20.3 62.6 1021.0 0.0 NNE 0.0 S 0.0 118.8
06:10 20.5 61.6 1021.1 1.6 SW 8.8 SW 0.0 132.9
06:15 20.7 60.7 1021.1 0.0 NNE 0.0 SW 0.0 148.1
06:20 20.8 59.9 1021.1 0.7 SSE 5.7 S 0.0 163.1
06:25 20.9 59.2 1021.1 0.2 SSE 3.9 SSW 0.0 178.8
06:30 21.0 59.2 1021.2 0.0 NNE 0.0 SSW 0.0 194.2
06:35 21.1 58.6 1021.2 2.1 SW 10.3 SSW 0.0 209.8
06:40 21.1 57.9 1021.3 5.8 S 10.3 SW 0.0 225.5
06:45 21.3 57.7 1021.3 2.3 SSW 7.1 SW 0.0 241.3
06:50 21.4 57.4 1021.3 3.3 SSW 8.1 SSW 0.0 257.4
06:55 21.4 57.0 1021.4 5.1 S 11.7 SSE 0.0 273.6
07:00 21.5 57.0 1021.4 3.0 SSW 8.5 SSW 0.0 290.0
07:05 21.7 56.5 1021.4 6.2 SSW 14.5 SSW 0.0 306.3
07:10 21.7 56.6 1021.4 5.7 SSW 13.4 S 0.0 322.2
07:15 21.7 56.6 1021.5 5.4 SSW 13.4 WSW 0.0 338.5
07:20 21.9 56.2 1021.5 4.0 SSW 9.9 S 0.0 355.1
07:25 22.1 55.9 1021.6 5.7 S 12.4 SSE 0.0 370.6
07:30 22.1 55.9 1021.6 5.0 SSW 11.0 SSW 0.0 386.3
07:35 21.9 56.2 1021.6 5.5 SSW 10.3 SSW 0.0 402.2
07:40 21.9 56.2 1021.6 5.0 SSW 10.6 SW 0.0 417.5
07:45 21.9 56.3 1021.6 4.6 SW 9.2 SW 0.0 432.3
07:50 22.0 56.7 1021.6 3.0 S 9.5 S 0.0 447.8
07:55 22.2 56.2 1021.7 1.5 SSW 6.4 SSW 0.0 463.9
08:00 22.1 57.0 1021.7 1.4 SSW 5.7 SW 0.0 479.1
08:05 22.2 57.3 1021.8 5.2 SSW 11.7 SSW 0.0 494.2
08:10 22.5 56.5 1021.8 3.5 S 7.8 SE 0.0 510.0
08:15 22.4 56.7 1021.8 3.6 S 11.3 SSW 0.0 525.0
08:20 22.5 56.7 1021.9 3.4 SSW 8.1 SW 0.0 538.8
08:25 22.5 56.6 1022.0 4.7 SSW 12.7 S 0.0 551.9
08:30 22.5 56.6 1022.1 3.1 S 8.8 SSE 0.0 564.8
08:35 22.7 56.6 1022.1 2.7 SW 11.0 SW 0.0 577.8
08:40 22.9 56.8 1022.1 5.5 S 11.7 WSW 0.0 590.8
08:45 23.4 55.3 1022.2 5.7 SSE 13.4 SSE 0.0 603.6
08:50 23.5 54.8 1022.2 5.0 S 13.4 S 0.0 615.4
08:55 23.7 54.4 1022.3 3.9 S 9.2 SW 0.0 627.3
09:00 23.6 54.8 1022.3 5.5 SSW 12.4 SW 0.0 639.0
09:05 24.0 53.5 1022.3 6.5 S 12.4 SSE 0.0 650.7
09:10 23.9 53.4 1022.3 7.4 S 16.6 SSE 0.0 662.3
09:15 23.9 53.8 1022.4 4.2 SSW 9.5 S 0.0 672.9
09:20 23.9 53.7 1022.4 4.6 SSE 11.3 SE 0.0 683.2
09:25 24.4 52.6 1022.3 7.6 S 14.1 SSE 0.0 693.3
09:30 24.4 52.7 1022.4 4.4 S 11.7 SSE 0.0 703.4
09:35 24.7 51.7 1022.4 5.4 SSE 12.4 S 0.0 628.0
09:40 24.8 51.2 1022.4 6.4 S 15.5 SW 0.0 700.3
09:45 25.2 51.1 1022.3 6.0 SSE 11.3 SE 0.0 732.6
09:50 25.2 51.0 1022.3 8.7 SSE 15.5 SSE 0.0 740.3
09:55 25.4 49.9 1022.3 7.4 SSE 13.8 SSE 0.0 748.2
10:00 25.6 49.3 1022.3 5.1 SSE 16.2 SSE 0.0 755.4
10:05 25.9 49.6 1022.3 3.0 S 12.0 SSE 0.0 762.8
10:10 26.3 47.5 1022.3 4.0 SSE 13.4 SSE 0.0 769.4
10:15 25.8 49.1 1022.3 6.1 SW 14.8 WSW 0.0 774.1
10:20 26.2 48.3 1022.3 5.7 S 17.3 SSE 0.0 783.3
10:25 26.0 48.1 1022.3 7.5 S 17.3 SSE 0.0 788.4
10:30 26.2 48.3 1022.2 8.1 SSE 18.4 SSE 0.0 793.7
10:35 26.5 47.5 1022.3 2.7 WSW 10.6 WSW 0.0 801.0
10:40 26.2 48.2 1022.3 4.8 SW 17.7 SW 0.0 746.1
10:45 26.0 47.5 1022.3 5.0 WSW 11.7 W 0.0 749.2
10:50 26.6 46.8 1022.4 1.8 SW 7.1 SSW 0.0 816.0
10:55 26.3 47.8 1022.3 6.5 SW 12.7 S 0.0 678.7
11:00 26.1 49.6 1022.2 7.2 SSW 13.8 SSW 0.0 734.8
11:05 26.8 47.8 1022.2 6.5 WSW 13.1 SW 0.0 836.0
11:10 26.7 49.3 1022.2 7.9 S 16.6 S 0.0 839.0
11:15 26.3 50.3 1022.1 9.8 SSW 18.4 SW 0.0 883.0
11:20 26.7 49.1 1022.1 2.0 SSW 9.9 SSW 0.0 862.0
11:25 27.1 49.1 1022.1 4.0 S 10.3 S 0.0 841.0
11:30 27.2 48.4 1022.1 4.8 S 12.7 SSE 0.0 850.0
11:35 27.5 48.2 1022.0 7.7 SSE 21.9 SSE 0.0 855.0
11:40 27.3 49.2 1022.0 9.6 S 24.0 SSE 0.0 849.0
11:45 27.0 49.4 1022.0 6.9 SSE 18.0 SSW 0.0 849.0
11:50 27.5 48.9 1022.0 10.5 SSE 25.1 SSE 0.0 843.0
11:55 27.5 48.5 1021.9 12.0 SSE 23.7 SSE 0.0 853.0
12:00 27.5 47.4 1021.9 7.4 S 22.6 SSE 0.0 838.0
12:05 27.3 47.9 1021.9 11.3 SSE 26.5 SSE 0.0 837.0
12:10 27.3 50.4 1021.9 13.2 SSE 24.4 SE 0.0 837.0
12:15 27.1 50.9 1021.8 12.4 SSE 28.6 SSE 0.0 834.0
12:20 27.1 51.8 1021.8 10.9 S 22.2 SSE 0.0 838.0
12:25 26.8 52.6 1021.8 12.8 S 25.8 SSE 0.0 834.0
12:30 27.0 51.4 1021.8 9.9 SSE 24.7 SSE 0.0 833.0
12:35 27.5 51.5 1021.8 8.6 SSE 19.4 SSE 0.0 830.0
12:40 27.8 52.9 1021.7 11.5 S 25.8 SSE 0.0 801.0
12:45 27.4 54.6 1021.7 13.0 SSE 25.4 SSE 0.0 830.0
12:50 27.4 54.9 1021.7 10.8 SSE 24.4 SSE 0.0 814.0
12:55 27.0 57.0 1021.6 17.1 SE 29.3 SE 0.0 807.0
13:00 26.8 57.3 1021.6 11.1 SE 25.4 SSE 0.0 802.0
13:05 26.9 57.6 1021.7 9.9 SSE 23.7 SSE 0.0 807.0
13:10 27.1 56.8 1021.7 6.0 S 14.8 S 0.0 811.0
13:15 27.3 56.3 1021.7 8.6 SSE 20.1 SSE 0.0 826.0
13:20 27.7 55.5 1021.6 7.1 SSE 16.2 SSE 0.0 820.0
13:25 28.1 54.6 1021.6 6.8 ESE 13.1 ENE 0.0 812.0
13:30 28.8 53.0 1021.5 7.3 SSE 23.3 SSE 0.0 829.0
13:35 28.2 54.8 1021.5 5.4 S 14.5 SSE 0.0 863.0
13:40 28.0 55.5 1021.5 10.4 S 26.5 SSE 0.0 881.0
13:45 27.6 56.9 1021.6 11.8 SE 23.7 SSE 0.0 877.0
13:50 27.7 57.1 1021.6 4.6 SSE 15.5 S 0.0 847.0
13:55 28.6 54.7 1021.6 12.2 E 27.2 ESE 0.0 810.0
14:00 28.5 55.0 1021.6 6.9 ESE 15.2 ESE 0.0 831.0
14:05 28.5 54.8 1021.6 8.7 SE 20.8 E 0.0 790.0
14:10 28.2 55.4 1021.6 11.7 ESE 30.0 SE 0.0 523.6
14:15 28.3 55.6 1021.6 11.1 E 19.4 ENE 0.0 652.2
14:20 28.2 55.7 1021.6 5.5 ESE 16.2 ESE 0.0 650.5
14:25 28.2 55.4 1021.6 9.0 ESE 21.2 SSE 0.0 759.1
14:30 27.4 57.5 1021.5 16.0 SE 28.6 ESE 0.0 716.7
14:35 27.0 58.7 1021.6 12.4 ESE 23.0 ESE 0.0 669.5
14:40 27.1 58.0 1021.6 17.7 ESE 34.6 ESE 0.0 223.0
14:45 25.1 63.8 1021.6 17.1 ESE 29.3 SE 0.0 154.7
14:50 25.1 64.3 1021.6 7.8 SE 17.3 ESE 0.0 516.3
14:55 25.6 62.6 1021.6 13.6 SE 25.8 E 0.0 675.3
15:00 26.4 60.2 1021.6 13.9 ESE 27.2 ESE 0.0 481.0
15:05 26.3 59.9 1021.6 12.0 SE 25.4 SE 0.0 488.4
15:10 25.4 61.9 1021.5 22.9 ESE 33.9 ESE 0.0 247.3
15:15 25.2 62.7 1021.6 16.3 E 24.7 E 0.0 564.6
15:20 26.1 59.4 1021.7 13.1 E 27.9 ENE 0.0 228.8
15:25 25.3 60.8 1021.7 12.1 SE 28.6 SSE 0.0 166.6
15:30 24.3 64.1 1021.7 14.3 SE 25.4 SE 0.0 326.6
15:35 24.8 62.8 1021.8 10.1 ESE 23.0 E 0.0 351.0
15:40 25.3 61.4 1021.8 13.0 E 26.5 E 0.0 269.2
15:45 25.0 62.1 1021.7 10.8 E 25.8 ESE 0.0 212.6
15:50 24.8 62.8 1021.7 16.3 E 28.6 E 0.0 480.1
15:55 25.2 61.8 1021.7 10.3 ENE 23.3 ENE 0.0 178.2
16:00 24.7 63.0 1021.6 22.7 E 38.5 ESE 0.0 128.4
16:05 24.0 65.2 1021.7 17.1 ENE 29.7 ENE 0.0 119.5
16:10 23.8 66.6 1021.7 15.7 ENE 31.4 ESE 0.0 98.4
16:15 23.8 67.3 1021.7 13.1 ENE 28.6 ENE 0.0 83.2
16:20 23.5 68.5 1021.7 13.3 ENE 25.4 E 0.0 60.0
16:25 23.2 70.0 1021.6 13.1 ENE 29.7 E 0.0 90.0
16:30 23.2 70.5 1021.6 8.0 E 15.9 ESE 0.0 83.8
16:35 23.0 71.6 1021.7 12.7 ENE 24.4 E 0.0 65.8
16:40 22.8 72.6 1021.7 14.7 ENE 27.2 ENE 0.0 92.6
16:45 22.7 72.9 1021.7 14.1 E 23.3 ENE 0.0 60.3
16:50 22.6 73.5 1021.7 6.9 ENE 18.4 ENE 0.0 65.2
16:55 22.4 73.7 1021.7 11.3 ENE 19.4 ENE 0.0 54.5
17:00 22.4 73.4 1021.7 13.9 ENE 24.4 ENE 0.0 55.9
17:05 22.3 73.6 1021.7 12.9 ENE 20.8 E 0.0 70.3
17:10 22.3 73.3 1021.7 8.8 E 19.1 ENE 0.0 88.7
17:15 22.5 72.5 1021.8 7.7 ENE 19.1 NNE 0.0 55.7
17:20 22.3 73.3 1021.8 8.2 E 18.0 E 0.0 59.5
17:25 22.2 74.2 1021.7 10.1 E 17.0 E 0.0 45.3
17:30 22.0 75.2 1021.7 8.7 E 15.9 E 0.0 44.4
17:35 21.9 76.6 1021.8 5.6 ENE 15.2 ENE 0.0 42.0
17:40 21.8 77.8 1021.8 10.1 E 17.3 ENE 0.0 30.9
17:45 21.7 78.9 1021.8 10.1 E 18.7 ESE 0.0 21.7
17:50 21.5 80.8 1021.8 12.5 ENE 19.1 ESE 0.0 22.0
17:55 21.3 81.8 1021.8 9.9 ENE 19.1 ESE 0.0 12.2
18:00 21.1 83.0 1021.8 12.3 ENE 21.2 E 0.0 7.6
18:05 21.0 83.8 1021.8 11.6 E 19.1 ESE 0.0 4.3
18:10 20.9 84.6 1021.9 8.2 ENE 19.1 E 0.0 2.5
18:15 20.9 85.0 1021.9 9.0 ENE 16.2 E 0.0 1.0
18:20 20.8 85.5 1021.8 8.8 E 16.6 E 0.0 0.9
18:25 20.8 85.7 1021.9 7.5 ENE 17.3 ESE 0.0 0.5
18:30 20.6 86.2 1022.0 10.5 E 23.0 ENE 0.0 0.3
18:35 20.5 86.6 1022.0 8.7 ENE 18.4 ENE 0.0 0.2
18:40 20.4 87.0 1022.0 6.6 ENE 12.0 E 0.0 0.1
Máxima 28.8 87.0 1022.4 22.9 ESE 38.5 ESE 0.0 883.0
Mínima 19.8 46.8 1020.3
Total 0.0